CW7945 Weather Reports


time (UTC)temp
F
wind
direction
speed
knots
gust
knots
rain 1hr
in
rain 24hr
in
rain mn
in
humidity
%
barometer
mb
20260505153016 79 270 1.7 7.0 0.00 0.00 0.00 47 1010.7
20260505152036 78 248 1.7 7.0 0.00 0.00 0.00 50 1010.7
20260505151037 77 270 0.9 7.0 0.00 0.00 0.00 49 1010.8
20260505124016 67 270 1.7 6.1 0.00 0.00 0.00 64 1011.6
20260505123016 67 293 0.9 6.1 0.00 0.00 0.00 64 1011.4
20260505122017 66 248 0.9 6.1 0.00 0.00 0.00 65 1011.2
20260505121016 65 270 0.9 7.0 0.00 0.00 0.00 69 1011.2
20260505120056 64 0.0 0.0 0.00 0.00 0.00 70 1011.2
20260505115016 63 0.0 0.0 0.00 0.00 0.00 72 1011.3
20260505114016 61 0.0 0.0 0.00 0.00 0.00 74 1011.3
20260505113016 60 0.0 0.0 0.00 0.00 0.00 77 1011.3
20260505112036 58 0.0 0.0 0.00 0.00 0.00 81 1011.1
20260505111016 57 0.0 0.0 0.00 0.00 0.00 84 1011.0
20260505102016 54 0.0 0.0 0.00 0.00 0.00 81 1010.8
20260505101016 56 0.0 0.0 0.00 0.00 0.00 79 1010.8
20260505100016 57 0.0 0.0 0.00 0.00 0.00 77 1010.7
20260505095016 57 0.0 0.0 0.00 0.00 0.00 77 1010.4
20260505094016 58 0.0 0.0 0.00 0.00 0.00 75 1010.5
20260505093016 58 0.0 0.0 0.00 0.00 0.00 75 1010.6
20260505092016 59 0.0 0.0 0.00 0.00 0.00 73 1010.5
20260505091016 59 0.0 0.0 0.00 0.00 0.00 72 1010.4
20260505090044 60 0.0 0.0 0.00 0.00 0.00 72 1010.2
20260505085016 60 0.0 0.0 0.00 0.00 0.00 71 1010.2
20260505084016 60 0.0 0.0 0.00 0.00 0.00 70 1010.2
20260505083016 61 0.0 0.0 0.00 0.00 0.00 70 1010.3
20260505082016 61 0.0 0.0 0.00 0.00 0.00 69 1010.3
20260505081016 61 0.0 0.0 0.00 0.00 0.00 69 1010.2
20260505080016 61 0.0 0.0 0.00 0.00 0.00 69 1010.4
20260505075016 61 0.0 0.0 0.00 0.00 0.00 69 1010.4
20260505074016 61 0.0 0.0 0.00 0.00 0.00 69 1010.5
20260505073016 61 0.0 0.0 0.00 0.00 0.00 68 1010.4
20260505072016 61 0.0 0.0 0.00 0.00 0.00 68 1010.3
20260505071036 61 0.0 0.0 0.00 0.00 0.00 68 1010.2
20260505070016 61 0.0 0.0 0.00 0.00 0.00 68 1010.3
20260505065036 62 0.0 0.0 0.00 0.00 0.00 66 1010.4
20260505064016 62 0.0 0.0 0.00 0.00 0.00 65 1010.4
20260505063016 62 0.0 0.0 0.00 0.00 0.00 65 1010.3
20260505062056 62 0.0 0.9 0.00 0.00 0.00 64 1010.3
20260505061016 62 0.0 2.6 0.00 0.00 0.00 64 1010.3
20260505060036 62 0.0 1.7 0.00 0.00 0.00 64 1010.3
20260505055057 62 0.0 3.5 0.00 0.00 0.00 63 1010.2
20260505054016 62 0.0 4.3 0.00 0.00 0.00 63 1010.2
20260505053016 62 0.0 3.5 0.00 0.00 0.00 63 1010.3
20260505052016 62 0.0 0.0 0.00 0.00 0.00 62 1010.4
20260505051016 62 0.0 0.0 0.00 0.00 0.00 61 1010.5
20260505041016 63 0.0 0.0 0.00 0.00 0.00 57 1010.3
20260505040016 63 0.0 0.0 0.00 0.00 0.00 56 1010.3
20260505035016 63 0.0 0.0 0.00 0.00 0.00 55 1010.3
20260505034016 63 0.0 1.7 0.00 0.00 0.00 55 1010.3
20260505033016 63 0.0 0.0 0.00 0.00 0.00 56 1010.3
20260505032016 62 0.0 0.0 0.00 0.00 0.00 56 1010.4
20260505031016 63 0.0 0.0 0.00 0.00 0.00 56 1010.3
20260505030016 63 0.0 0.0 0.00 0.00 0.00 56 1010.2
20260505025016 62 0.0 0.0 0.00 0.00 0.00 57 1010.5
20260505024016 62 0.0 0.0 0.00 0.00 0.00 58 1010.6
20260505023016 62 0.0 0.0 0.00 0.00 0.00 56 1010.6
20260505022016 63 0.0 0.0 0.00 0.00 0.00 55 1010.7
20260505021016 64 0.0 0.0 0.00 0.00 0.00 54 1010.6
20260505020016 64 0.0 0.0 0.00 0.00 0.00 53 1010.6
20260505015016 64 0.0 0.0 0.00 0.00 0.00 52 1010.6
20260505014016 64 0.0 0.0 0.00 0.00 0.00 52 1010.5
20260505013016 64 0.0 0.0 0.00 0.00 0.00 51 1010.6
20260505012036 65 0.0 0.0 0.00 0.00 0.00 50 1010.5
20260505011016 65 0.0 0.0 0.00 0.00 0.00 50 1010.3
20260505010016 65 0.0 0.0 0.00 0.00 0.00 49 1010.1
20260505005016 66 0.0 0.0 0.00 0.00 0.00 48 1010.0
20260505004016 67 0.0 0.0 0.00 0.00 0.00 46 1009.9
20260505003016 67 0.0 0.0 0.00 0.00 0.00 45 1009.9
20260505002016 68 0.0 0.0 0.00 0.00 0.00 44 1009.9
20260505001016 69 0.0 2.6 0.00 0.00 0.00 43 1009.7
20260505000016 69 0.0 1.7 0.00 0.00 0.00 43 1009.7
20260504235036 69 248 0.9 7.0 0.00 0.00 0.00 42 1009.6
20260504234016 70 225 0.9 7.8 0.00 0.00 0.00 41 1009.6
20260504233016 70 225 2.6 7.8 0.00 0.00 0.00 40 1009.4
20260504232016 71 225 0.9 5.2 0.00 0.00 0.00 40 1009.4
20260504231016 71 248 0.9 6.1 0.00 0.00 0.00 40 1009.2
20260504230016 71 248 1.7 7.0 0.00 0.00 0.00 39 1009.2
20260504225016 71 225 3.5 13.9 0.00 0.00 0.00 39 1009.1
20260504224016 71 248 2.6 11.3 0.00 0.00 0.00 40 1009.2
20260504223016 72 225 1.7 10.4 0.00 0.00 0.00 39 1009.3
20260504222036 72 225 2.6 9.6 0.00 0.00 0.00 39 1009.3
20260504221017 72 225 3.5 8.7 0.00 0.00 0.00 40 1009.4
20260504220016 73 0.0 4.3 0.00 0.00 0.00 40 1009.4
20260504215016 72 225 4.3 10.4 0.00 0.00 0.00 40 1009.4
20260504214016 73 248 1.7 7.8 0.00 0.00 0.00 39 1009.4
20260504213016 72 225 3.5 10.4 0.00 0.00 0.00 40 1009.5
20260504212016 73 225 2.6 10.4 0.00 0.00 0.00 39 1009.6
20260504211016 74 225 1.7 7.0 0.00 0.00 0.00 38 1009.5
20260504210016 73 0.0 3.5 0.00 0.00 0.00 39 1009.5
20260504205016 73 225 3.5 12.2 0.00 0.00 0.00 39 1009.6
20260504204016 73 248 2.6 8.7 0.00 0.00 0.00 39 1009.7
20260504203016 72 248 4.3 11.3 0.00 0.00 0.00 39 1009.7
20260504202036 73 248 0.9 3.5 0.00 0.00 0.00 38 1009.7
20260504201017 73 248 2.6 10.4 0.00 0.00 0.00 40 1009.8
20260504200016 73 248 0.9 11.3 0.00 0.00 0.00 39 1010.0
20260504195016 73 248 1.7 10.4 0.00 0.00 0.00 40 1010.0
20260504194016 72 248 2.6 13.0 0.00 0.00 0.00 39 1010.0
20260504193016 73 225 0.9 5.2 0.00 0.00 0.00 40 1010.1
20260504192036 72 225 3.5 13.9 0.00 0.00 0.00 39 1010.2
20260504191017 72 248 4.3 13.0 0.00 0.00 0.00 40 1010.2
20260504190016 71 225 3.5 12.2 0.00 0.00 0.00 39 1010.4
20260504185016 71 248 0.9 7.8 0.00 0.00 0.00 41 1010.6
20260504184016 71 248 0.9 6.1 0.00 0.00 0.00 39 1010.7
20260504183036 72 248 3.5 17.4 0.00 0.00 0.00 39 1010.9
20260504182016 72 248 0.9 8.7 0.00 0.00 0.00 41 1011.0
20260504181036 71 248 0.9 7.0 0.00 0.00 0.00 39 1011.0
20260504180016 71 293 0.9 8.7 0.00 0.00 0.00 41 1011.3
20260504175016 71 225 2.6 7.8 0.00 0.00 0.00 41 1011.5
20260504174016 70 248 1.7 10.4 0.00 0.00 0.00 40 1011.5
20260504173016 69 225 4.3 11.3 0.00 0.00 0.00 38 1011.7
20260504172016 69 225 2.6 11.3 0.00 0.00 0.00 39 1011.7
20260504171016 69 248 3.5 13.0 0.00 0.00 0.00 39 1012.0